Location: Newark
(48.2308°N, 120.8549°W)
Time: 22:39:02
(UTC+00:00)

Transit 2A Rocket - Pass Details

Date: 03 June 2020
Orbit: 584 x 919 km, 66.7° (Epoch: 10 July)

Event Time Altitude Azimuth Distance (km) Brightness Sun altitude
Rises 08:29:50 0° 280° (W) 3,248 8.3 -19.1°
Reaches altitude 10° 08:33:09 10° 302° (WNW) 2,393 7.9 -19.0°
Maximum altitude 08:36:32 16° 340° (NNW) 2,055 8.0 -18.9°
Drops below altitude 10° 08:40:04 10° 18° (NNE) 2,521 8.9 -18.9°
Sets 08:43:43 0° 39° (NE) 3,511 9.5 -18.8°
